Home   Weather   Prudhoe Bay   Past weeks

Flag for USA Past Weather in Prudhoe Bay, Alaska, USA — Yesterday and Last 2 Weeks

Now
39 °F

Scattered clouds.


Feels Like: 31 °F
Forecast: 34 / 39 °F
Wind: 13 mph from Southwest

Location: Deadhorse Airport

Current Time: Sep 29, 2016 at 12:31:01 PM

Latest Report: Sep 29, 2016 at 11:53 AM


Visibility: 10 mi

Pressure: 30.35 "Hg

Humidity: 73%

Dew Point: 31 °F

Location of Prudhoe BayLocation

Past Weather in Prudhoe Bay — Graph

°F

Prudhoe Bay Temperature Yesterday

Maximum temperature yesterday: 40 °F (at 4:53 PM)
Minimum temperature yesterday: 22 °F (at 12:53 AM)
Average temperature yesterday: 33 °F

High & Low Weather Summary for the Past Weeks

 TemperatureHumidityPressure
High54 °F (Sep 20, 3:53 PM)100% (Sep 24, 9:53 AM)30.33 "Hg (Sep 24, 9:53 AM)
Low22 °F (Sep 27, 11:53 PM)55% (Sep 20, 4:53 PM)28.98 "Hg (Sep 23, 4:53 AM)
Average35 °F82%29.62 "Hg
* Reported Sep 14 10:53 AM — Sep 29 10:53 AM, Prudhoe Bay, Weather by CustomWeather, © 2016

Note: Actual official high and low records may vary slightly from our data, if they occured in-between our weather recording intervals... More about our weather records

Advertising

Prudhoe Bay Weather History for the Previous 24 Hours

Scroll right to see more
 ConditionsComfort  
Time TempWeatherWind HumidityBarometerVisibility
10:53 AM
Thu, Sep 29
37 °FPartly sunny.14 mph79%30.33 "Hg10 mi
9:53 AM35 °FPartly sunny.14 mph82%30.31 "Hg10 mi
8:53 AM36 °FPartly sunny.14 mph79%30.29 "Hg10 mi
7:53 AM36 °FMostly cloudy.14 mph79%30.27 "Hg10 mi
6:53 AM36 °FOvercast.16 mph79%30.23 "Hg10 mi
5:53 AM36 °FOvercast.18 mph79%30.20 "Hg10 mi
4:53 AM35 °FPassing clouds.14 mph82%30.18 "Hg10 mi
3:53 AM36 °FPassing clouds.14 mph82%30.15 "Hg10 mi
2:53 AM37 °FOvercast.16 mph79%30.12 "Hg10 mi
1:53 AM36 °FOvercast.18 mph85%30.10 "Hg10 mi
12:53 AM37 °FOvercast.16 mph82%30.07 "Hg10 mi
11:53 PM
Wed, Sep 28
36 °FPassing clouds.18 mph85%30.03 "Hg10 mi
10:53 PM38 °FMostly cloudy.16 mph86%29.99 "Hg10 mi
9:53 PM38 °FOvercast.18 mph86%29.96 "Hg10 mi
8:53 PM38 °FOvercast.17 mph90%29.91 "Hg10 mi
7:53 PM39 °FMostly cloudy.15 mph86%29.87 "Hg10 mi
6:53 PM40 °FMostly cloudy.16 mph86%29.83 "Hg10 mi
6:00 PM39 °FLight rain. Overcast.14 mph89%29.82 "Hg10 mi
4:53 PM40 °FLight rain. More clouds than sun.12 mph83%29.80 "Hg10 mi
3:53 PM37 °FLight rain. Mostly cloudy.7 mph76%29.79 "Hg10 mi
2:53 PM38 °FOvercast.9 mph65%29.79 "Hg10 mi
1:53 PM37 °FOvercast.10 mph67%29.80 "Hg10 mi
12:53 PM36 °FOvercast.8 mph70%29.81 "Hg10 mi
Weather by CustomWeather, © 2016

See weather overviewHow to use our weather pages